Regional Weather Roundup
Issued by NWS

Home | Current Version | Previous Version | Text Only | Print | Product List | Glossary Off
Versions: 1 2 3 4 5 6 7 8 9 10 11 12 13 14 15 16 17 18 19 20 21 22 23 24 25 26 27 28 29 30 31 32 33 34 35 36 37 38 39 40 41 42 43 44 45 46 47 48 49 50

000
ASUS43 KFSD 231602
RWRSD

WEATHER ROUNDUP FOR SOUTH DAKOTA
NATIONAL WEATHER SERVICE SIOUX FALLS SD
1100 AM CDT SUN APR 23 2017

NOTE: "FAIR" INDICATES FEW OR NO CLOUDS BELOW 12,000 FEET WITH NO
SIGNIFICANT WEATHER AND/OR OBSTRUCTIONS TO VISIBILITY.


SDZ001>005-009-010-012>017-231700-
NORTHWEST AND NORTH CENTRAL SOUTH DAKOTA

CITY           SKY/WX    TMP DP  RH WIND       PRES   REMARKS
BUFFALO          N/A     35  32  88 E16       29.80F WCI  25
FAITH            N/A     49  41  74 NE13      29.83F
MOBRIDGE       CLOUDY    44  34  67 E23       29.89F
$$

SDZ012>016-024>037-041>051-057-063-072>074-231700-
SOUTHWEST AND SOUTH CENTRAL SOUTH DAKOTA

CITY           SKY/WX    TMP DP  RH WIND       PRES   REMARKS
RAPID CTY ARPT MOSUNNY   56  38  50 SW5       29.80F
PIERRE         PTSUNNY   61  36  39 S12       29.85F
CUSTER         CLOUDY    53  25  33 SW12G22   29.86F
ELLSWORTH AFB  CLOUDY    55  40  56 N10       29.80  HAZE
PHILIP         CLOUDY    63  39  41 SW15G22   29.81F
PINE RIDGE     CLOUDY    57  39  51 SW17G25   29.86F
SPEARFISH      FAIR      54  37  54 N5        29.83S
WINNER         FAIR      63  34  33 S32G40    29.90F
$$

SDZ004>011-016>023-039-040-231700-
NORTHEAST SOUTH DAKOTA

CITY           SKY/WX    TMP DP  RH WIND       PRES   REMARKS
ABERDEEN       CLOUDY    50  38  63 E15       29.98F
WATERTOWN      SUNNY     57  37  47 SW7       29.99F
BROOKINGS      SUNNY     63  35  35 SW17G24   30.00F
SISSETON         N/A     50  42  74 SE10      30.03F
$$

SDZ017-020-022-023-036>040-048>070-231700-
SOUTHEAST SOUTH DAKOTA

CITY           SKY/WX    TMP DP  RH WIND       PRES   REMARKS
SIOUX FALLS    MOSUNNY   62  38  40 SW14G21   30.03F
HURON          MOSUNNY   59  40  49 VRB3      29.96F
CHAMBERLAIN    MOSUNNY   63  37  37 S18G25    29.93F
MITCHELL       MOSUNNY   64  35  34 SW18      29.99F
YANKTON        SUNNY    N/A N/A N/A SW23G30   30.02F
$$

ABBREVIATIONS USED IN REMARKS
   TC - TEMPERATURE IN CELSIUS
  WCI - WIND CHILL INDEX
   HX - HEAT INDEX
  VSB - VISIBILITY




USA.gov is the U.S. government's official web portal to all federal, state and local government web resources and services.